Change the Weather History Date:

Sunday, September 30, 2012

  Actual Average Record
Temperature  
Mean Temperature 63 °F -  
Max Temperature 66 °F 78 °F 95 °F (1998)
Min Temperature 60 °F 56 °F 42 °F (2004)
Degree Days  
Heating Degree Days 2    
Growing Degree Days 13 (Base 50)    
Moisture  
Dew Point 58 °F    
Average Humidity 81    
Maximum Humidity 100    
Minimum Humidity 73    
Precipitation  
Precipitation 0.00 in - - ()
Sea Level Pressure  
Sea Level Pressure 29.87 in    
Wind  
Wind Speed 4 mph (NE)    
Max Wind Speed 6 mph    
Max Gust Speed -    
Visibility 9 miles    
Events Rain    
Averages and records for this station are not official NWS values.
T = Trace of Precipitation, MM = Missing Value Source: NWS Daily Summary

Daily Weather History Graph

Daily Weather History Graph

Search for Another Location

Airport or City:

Trip Planner

Search our weather history database for the weather conditions in past years. The results will help you decide how hot, cold, wet, or windy it might be!

Date:

Astronomy

Sep. 30, 2012 Rise Set
Actual Time 6:53 AM CDT 6:44 PM CDT
Civil Twilight 6:28 AM CDT 7:09 PM CDT
Nautical Twilight 5:59 AM CDT 7:38 PM CDT
Astronomical Twilight 5:29 AM CDT 8:08 PM CDT
Moon 6:51 PM CDT (9/30) 7:21 AM CDT (9/30)
Length of Visible Light 12h 40m
Length of Day
11h 50m
Full, 100% of the Moon is Illuminated
Sep 30
Full
Oct 8
Last Quarter
Oct 15
New
Oct 21
First Quarter
Oct 29
Full

Hourly Weather History & Observations

Time (CDT) Temp. Dew Point Humidity Pressure Visibility Wind Dir Wind Speed Gust Speed Precip Events Conditions
12:55 AM 64.4 °F 55.4 °F 73% 29.95 in 10.0 mi NE 4.6 mph - N/A   Clear
1:55 AM 64.4 °F 55.4 °F 73% 29.94 in 10.0 mi NE 5.8 mph - N/A   Clear
2:15 AM 64.4 °F 55.4 °F 73% 29.94 in 10.0 mi NE 4.6 mph - N/A   Clear
2:35 AM 64.4 °F 55.4 °F 73% 29.93 in 10.0 mi Variable 5.8 mph - N/A   Clear
2:55 AM 64.4 °F 55.4 °F 73% 29.92 in 10.0 mi NE 4.6 mph - N/A   Clear
3:15 AM 64.4 °F 55.4 °F 73% 29.92 in 10.0 mi Variable 4.6 mph - N/A   Clear
3:35 AM 64.4 °F 55.4 °F 73% 29.91 in 10.0 mi ENE 4.6 mph - N/A   Clear
3:55 AM 64.4 °F 55.4 °F 73% 29.91 in 10.0 mi ENE 3.5 mph - N/A   Clear
4:55 AM 62.6 °F 55.4 °F 77% 29.90 in 10.0 mi ENE 3.5 mph - N/A   Clear
5:55 AM 62.6 °F 55.4 °F 77% 29.90 in 10.0 mi ENE 3.5 mph - N/A   Overcast
6:55 AM 62.6 °F 55.4 °F 77% 29.90 in 10.0 mi ENE 4.6 mph - N/A   Overcast
7:55 AM 62.6 °F 55.4 °F 77% 29.91 in 10.0 mi ENE 4.6 mph - N/A   Overcast
8:55 AM 64.4 °F 57.2 °F 77% 29.91 in 10.0 mi ENE 5.8 mph - N/A   Overcast
9:55 AM 64.4 °F 57.2 °F 77% 29.91 in 10.0 mi ENE 4.6 mph - N/A   Overcast
10:55 AM 64.4 °F 57.2 °F 77% 29.90 in 10.0 mi ENE 3.5 mph - N/A   Overcast
11:55 AM 66.2 °F 57.2 °F 73% 29.89 in 10.0 mi ENE 4.6 mph - N/A   Overcast
12:55 PM 66.2 °F 59.0 °F 78% 29.88 in 10.0 mi Calm Calm - N/A Rain Light Rain
1:55 PM 64.4 °F 60.8 °F 88% 29.85 in 7.0 mi NNE 3.5 mph - N/A Rain Light Rain
2:55 PM 64.4 °F 60.8 °F 88% 29.82 in 10.0 mi Variable 4.6 mph - N/A   Overcast
3:55 PM 64.4 °F 60.8 °F 88% 29.80 in 10.0 mi Variable 4.6 mph - N/A Rain Light Rain
4:55 PM 64.4 °F 60.8 °F 88% 29.79 in 10.0 mi NE 3.5 mph - N/A Rain Light Rain
5:55 PM 62.6 °F 62.6 °F 100% 29.81 in 6.0 mi Calm Calm - N/A Rain Light Rain
7:55 PM 62.6 °F 60.8 °F 94% 29.80 in 10.0 mi NNE 4.6 mph - N/A   Overcast
8:55 PM 62.6 °F 59.0 °F 88% 29.81 in 9.0 mi Calm Calm - N/A   Overcast
9:55 PM 60.8 °F 59.0 °F 94% 29.77 in 5.0 mi NE 4.6 mph - N/A   Overcast
10:55 PM 60.8 °F 57.2 °F 88% 29.78 in 7.0 mi NE 4.6 mph - N/A   Overcast
11:55 PM 60.8 °F 59.0 °F 94% 29.76 in 5.0 mi ENE 4.6 mph - N/A   Overcast